Lake Charles, LA

2:57 PM CDT on April 27, 2017 (GMT -0500)
Chennault International

Weather History for KCWF - October, 2012

Change the Weather History Date:

Wednesday, October 3, 2012

  Actual Average Record
Temperature  
Mean Temperature 71 °F -  
Max Temperature 83 °F 80 °F 93 °F (2006)
Min Temperature 60 °F 65 °F 51 °F (2011)
Cooling Degree Days 6    
Growing Degree Days 21 (Base 50)    
Moisture  
Dew Point 59 °F    
Average Humidity 78    
Maximum Humidity 92    
Minimum Humidity 37    
Precipitation  
Precipitation 0.00 in - - ()
Sea Level Pressure  
Sea Level Pressure 30.01 in    
Wind  
Wind Speed 1 mph (South)    
Max Wind Speed 7 mph    
Max Gust Speed -    
Visibility 10 miles    
Events Thunderstorm    
Averages and records for this station are not official NWS values.
T = Trace of Precipitation, MM = Missing Value Source: NWS Daily Summary

Daily Weather History Graph

Daily Weather History Graph

Search for Another Location

Airport or City:

Trip Planner

Search our weather history database for the weather conditions in past years. The results will help you decide how hot, cold, wet, or windy it might be!

Date:

Astronomy

Oct. 03, 2012 Rise Set
Actual Time 7:07 AM CDT 6:54 PM CDT
Civil Twilight 6:43 AM CDT 7:18 PM CDT
Nautical Twilight 6:15 AM CDT 7:46 PM CDT
Astronomical Twilight 5:47 AM CDT 8:14 PM CDT
Moon 9:05 PM CDT (10/3) 10:14 AM CDT (10/3)
Length of Visible Light 12h 35m
Length of Day
11h 47m
Waning Gibbous, 88% of the Moon is Illuminated
Oct 3
Waning Gibbous
Oct 8
Last Quarter
Oct 15
New
Oct 21
First Quarter
Oct 29
Full

Hourly Weather History & Observations

Time (CDT) Temp. Heat Index Dew Point Humidity Pressure Visibility Wind Dir Wind Speed Gust Speed Precip Events Conditions
12:15 AM 64.2 °F - 59.9 °F 86% 29.97 in 10.0 mi Calm Calm - N/A   Clear
12:35 AM 64.4 °F - 60.1 °F 86% 29.97 in 10.0 mi Calm Calm - N/A   Clear
12:55 AM 63.3 °F - 59.4 °F 87% 29.97 in 10.0 mi Calm Calm - N/A   Clear
1:15 AM 62.8 °F - 59.5 °F 89% 29.98 in 10.0 mi ENE 3.5 mph - N/A   Clear
1:35 AM 62.2 °F - 59.2 °F 90% 29.98 in 10.0 mi SE 3.5 mph - N/A   Clear
1:55 AM 61.9 °F - 59.0 °F 90% 29.98 in 10.0 mi Calm Calm - N/A   Clear
2:15 AM 61.7 °F - 59.2 °F 91% 29.97 in 10.0 mi Calm Calm - N/A   Clear
2:35 AM 61.9 °F - 59.4 °F 91% 29.97 in 10.0 mi Calm Calm - N/A   Clear
2:55 AM 62.6 °F - 59.9 °F 91% 29.97 in 10.0 mi Calm Calm - N/A   Clear
3:15 AM 62.2 °F - 58.8 °F 89% 29.97 in 10.0 mi Calm Calm - N/A   Clear
3:35 AM 61.9 °F - 59.4 °F 91% 29.97 in 10.0 mi Calm Calm - N/A   Clear
3:55 AM 61.5 °F - 59.0 °F 91% 29.97 in 10.0 mi Calm Calm - N/A   Clear
4:15 AM 60.8 °F - 58.3 °F 91% 29.97 in 10.0 mi Calm Calm - N/A   Clear
4:35 AM 61.0 °F - 58.6 °F 92% 29.98 in 10.0 mi Calm Calm - N/A   Clear
4:55 AM 60.6 °F - 57.6 °F 90% 29.99 in 10.0 mi Calm Calm - N/A   Clear
5:15 AM 61.2 °F - 58.3 °F 90% 29.99 in 10.0 mi Calm Calm - N/A   Clear
5:35 AM 60.4 °F - 57.6 °F 90% 29.99 in 10.0 mi North 3.5 mph - N/A   Clear
5:55 AM 61.0 °F - 57.9 °F 90% 29.99 in 10.0 mi Calm Calm - N/A   Clear
6:01 AM 60.8 °F - 57.2 °F 88% 29.91 in 7.0 mi Calm Calm - N/A Thunderstorm Thunderstorm
6:55 AM 60.8 °F - 57.2 °F 88% 30.00 in 10.0 mi Calm Calm - N/A   Clear
8:55 AM 69.8 °F - 62.6 °F 78% 30.03 in 10.0 mi Calm Calm - N/A   Clear
9:46 AM 73.4 °F - 60.8 °F 65% 30.05 in 10.0 mi Calm Calm - N/A   Clear
10:47 AM 77.0 °F - 57.2 °F 50% 30.05 in 10.0 mi Calm Calm - N/A   Clear
11:47 AM 80.6 °F 80.5 °F 55.4 °F 42% 30.06 in 10.0 mi Calm Calm - N/A   Clear
12:46 PM 82.4 °F 81.7 °F 55.4 °F 39% 30.05 in 10.0 mi WSW 6.9 mph - N/A   Clear
1:46 PM 82.4 °F 81.4 °F 53.6 °F 37% 30.02 in 10.0 mi West 6.9 mph - N/A   Scattered Clouds
2:51 PM 82.4 °F 81.4 °F 53.6 °F 37% 30.01 in 10.0 mi SW 4.6 mph - N/A   Scattered Clouds
4:50 PM 82.4 °F 81.4 °F 53.6 °F 37% 30.01 in 10.0 mi SSW 4.6 mph - N/A   Clear
5:50 PM 80.6 °F 80.5 °F 55.4 °F 42% 30.02 in 10.0 mi South 5.8 mph - N/A   Clear
6:50 PM 77.0 °F - 57.2 °F 50% 30.03 in 10.0 mi South 5.8 mph - N/A   Clear
8:50 PM 66.2 °F - 60.8 °F 83% 30.07 in 10.0 mi SSE 4.6 mph - N/A   Clear
9:50 PM 66.2 °F - 62.6 °F 88% 30.07 in 10.0 mi SSE 3.5 mph - N/A   Clear
10:15 PM 67.8 °F - 62.1 °F 82% 30.09 in 10.0 mi Calm Calm - N/A   Clear
10:35 PM 68.2 °F - 62.1 °F 81% 30.09 in 10.0 mi Calm Calm - N/A   Clear
10:55 PM 67.1 °F - 62.1 °F 84% 30.10 in 10.0 mi Calm Calm - N/A   Clear
11:15 PM 66.4 °F - 62.1 °F 86% 30.10 in 10.0 mi Calm Calm - N/A   Clear
11:35 PM 66.2 °F - 62.2 °F 87% 30.10 in 10.0 mi Calm Calm - N/A   Clear
11:55 PM 65.8 °F - 62.1 °F 88% 30.10 in 10.0 mi Calm Calm - N/A   Clear